[[{"header":{"parameterUnit":"m.s-1","parameterCategory":1,"la1":30.2992,"la2":30.254,"lo1":-89.0895,"lo2":-89.0443,"dy":0.0025,"dx":0.0025,"nx":19,"ny":19,"refTime":"2026-05-02T21:00:00:Z","depth":0,"parameterNumber":2,"parameterNumberName":"U-component_of_WINDS"},"data":[0,0,0,0.0803,0.0804,0.0875,0.0876,0.0942,0.0942,0,0,0,0,0,0,0,0,0,0,0,0.0768,0.0768,0.0803,0.0804,0.0875,0.0876,0.0942,0.0942,0,0,0,0,0,0,0,0,0,0,0,0.0768,0.0768,0.0768,0.0805,0.0875,0.0876,0.0942,0.0897,0,0,0,0,0,0,0,0,0,0,0.0832,0.0786,0.0768,0.0768,0.0805,0.0875,0.0876,0.0895,0.09,0.09,0,0.0896,0,0.092,0.0945,0.0946,0,0,0,0.0815,0.0782,0.0814,0.0768,0.0805,0.0875,0.0846,0.0898,0.0903,0.0906,0.0897,0.09,0.0921,0.0946,0.0946,0.0909,0.0908,0,0,0.0811,0.0773,0.081,0.0816,0.0804,0.0844,0.0848,0.0902,0.089,0.0897,0.0902,0.0922,0.0946,0.0946,0.091,0.0909,0,0,0,0.0793,0.0769,0.0801,0.0813,0.0828,0.0846,0.0851,0.0887,0.0901,0.0903,0.0923,0.0946,0.0947,0.091,0.0909,0.0836,0,0,0,0.0791,0.0759,0.0799,0.0776,0.0826,0.0858,0.0835,0.0897,0.0904,0.0923,0.0946,0.0947,0.0911,0.091,0.084,0.0807,0,0,0,0.0768,0.0756,0.0762,0.0773,0.0802,0.0858,0.0875,0.09,0.0916,0.0946,0.0947,0.0912,0.091,0.0843,0.0813,0.0784,0,0,0,0.0732,0.0697,0.076,0.0728,0.0802,0.0813,0.0876,0.0887,0.0903,0.0946,0.0911,0.0909,0.0844,0.0816,0.0788,0.0751,0.0733,0,0,0.0666,0.0687,0.0672,0.073,0.072,0.0806,0.0786,0.0838,0.0877,0.0896,0.0896,0.0839,0.0813,0.0785,0.0651,0.0636,0,0,0,0.0637,0.0625,0.0631,0.0645,0.0684,0.0715,0.0774,0.0794,0.0812,0.0879,0.0824,0.081,0.0795,0.0779,0.0766,0.0755,0.0901,0.0901,0.0902,0.0485,0.0536,0.0513,0.0573,0.0586,0.0648,0.0663,0.0699,0.0748,0.0734,0.0739,0.0651,0.0631,0.0622,0.061,0.0727,0.0726,0.0726,0.0726,0.0389,0.0379,0.0445,0.0445,0.05,0.0501,0.056,0.0594,0.0603,0.0652,0.0641,0.0688,0.0605,0.0596,0.0721,0.0722,0.0722,0.0723,0.0723,0.0293,0.0297,0.0322,0.0347,0.0361,0.0424,0.0428,0.0479,0.0526,0.0516,0.0525,0.0527,0.0532,0.0518,0.0517,0.0517,0.0517,0.0517,0.0516,0.0182,0.0212,0.021,0.0249,0.0264,0.0291,0.0353,0.037,0.0401,0.0437,0.0437,0.0485,0.0588,0.0611,0.0512,0.0513,0.0513,0.0514,0.0514,0.006,0.0096,0.0092,0.0107,0.0157,0.0166,0.0232,0.026,0.0282,0.0282,0.0334,0.0403,0.0428,0.0438,0.0457,0.0324,0.0324,0.0324,0.0324,-0.0024,-0.0005,0.0002,0.0023,0.0049,0.0108,0.0101,0.0149,0.0205,0.0221,0.0249,0.0279,0.0288,0.0308,0.0321,0.034,0.018,0.018,0.018,-0.0097,-0.0073,-0.0089,-0.0034,0.0009,0.0043,0.0038,0.0059,0.013,0.0175,0.0234,0.024,0.0291,0.0305,0.0347,0.0366,0.0402,0,0]},{"header":{"parameterUnit":"m.s-1","parameterCategory":1,"la1":30.2992,"la2":30.254,"lo1":-89.0895,"lo2":-89.0443,"dy":0.0025,"dx":0.0025,"nx":19,"ny":19,"refTime":"2026-05-02T21:00:00:Z","depth":0,"parameterNumber":3,"parameterNumberName":"V-component_of_WINDS"},"data":[0,0,0,-1.9577,-1.9579,-1.965,-1.9651,-1.9737,-1.9738,0,0,0,0,0,0,0,0,0,0,0,-1.9552,-1.9553,-1.9577,-1.9579,-1.965,-1.9651,-1.9737,-1.9738,0,0,0,0,0,0,0,0,0,0,0,-1.9552,-1.9553,-1.9553,-1.9579,-1.965,-1.9651,-1.9737,-1.9685,0,0,0,0,0,0,0,0,0,0,-1.9617,-1.9589,-1.9553,-1.9553,-1.958,-1.965,-1.9651,-1.9683,-1.9688,-1.9703,0,-1.9714,0,-1.9727,-1.9743,-1.9744,0,0,0,-1.9582,-1.9585,-1.9607,-1.9553,-1.958,-1.965,-1.9619,-1.9686,-1.9692,-1.971,-1.9715,-1.9718,-1.9728,-1.9744,-1.9744,-1.9817,-1.9817,0,0,-1.9578,-1.9563,-1.9603,-1.9611,-1.9599,-1.9617,-1.9621,-1.969,-1.9694,-1.9715,-1.972,-1.973,-1.9744,-1.9745,-1.9817,-1.9817,0,0,0,-1.9565,-1.956,-1.9582,-1.9608,-1.9621,-1.9619,-1.9624,-1.9691,-1.9699,-1.9721,-1.9731,-1.9745,-1.9746,-1.9817,-1.9817,-1.9814,0,0,0,-1.9562,-1.9553,-1.958,-1.9571,-1.9619,-1.9657,-1.9624,-1.9695,-1.9703,-1.973,-1.9745,-1.9747,-1.9816,-1.9817,-1.9813,-1.9815,0,0,0,-1.9549,-1.9551,-1.956,-1.957,-1.9601,-1.9656,-1.9668,-1.9697,-1.9708,-1.9744,-1.9747,-1.9816,-1.9817,-1.9813,-1.9814,-1.9831,0,0,0,-1.9531,-1.9555,-1.956,-1.9591,-1.96,-1.9653,-1.9668,-1.9708,-1.9737,-1.9745,-1.9816,-1.9817,-1.9813,-1.9814,-1.9831,-1.9843,-1.9847,0,0,-1.9553,-1.9557,-1.9577,-1.9583,-1.9631,-1.9643,-1.9691,-1.9732,-1.9749,-1.9794,-1.9796,-1.9813,-1.9814,-1.9831,-1.987,-1.9872,0,0,0,-1.9579,-1.9593,-1.9609,-1.9637,-1.9669,-1.9697,-1.9732,-1.9748,-1.9787,-1.9769,-1.9824,-1.9825,-1.9835,-1.9842,-1.9844,-1.9855,-1.9819,-1.9819,-1.9819,-1.9589,-1.961,-1.9645,-1.9675,-1.9701,-1.9739,-1.9763,-1.979,-1.9802,-1.9815,-1.9829,-1.985,-1.9858,-1.9859,-1.9871,-1.9836,-1.9836,-1.9836,-1.9836,-1.9625,-1.9649,-1.9667,-1.9706,-1.9729,-1.9763,-1.98,-1.9808,-1.9844,-1.9841,-1.9851,-1.9847,-1.9862,-1.9873,-1.9836,-1.9836,-1.9836,-1.9836,-1.9836,-1.9636,-1.9651,-1.967,-1.9714,-1.9746,-1.9775,-1.9809,-1.9828,-1.9846,-1.9856,-1.9874,-1.9874,-1.9878,-1.9863,-1.9863,-1.9863,-1.9863,-1.9863,-1.9863,-1.9639,-1.9661,-1.9687,-1.9725,-1.9746,-1.9777,-1.9816,-1.9838,-1.9868,-1.9879,-1.9879,-1.9892,-1.9859,-1.9851,-1.9865,-1.9864,-1.9864,-1.9864,-1.9864,-1.967,-1.9667,-1.9707,-1.9729,-1.9776,-1.9808,-1.9832,-1.9876,-1.9897,-1.9914,-1.9924,-1.9896,-1.9902,-1.99,-1.9894,-1.9918,-1.9918,-1.9918,-1.9918,-1.968,-1.9684,-1.9732,-1.9766,-1.9801,-1.9828,-1.9876,-1.9907,-1.9939,-1.9953,-1.9952,-1.9945,-1.9943,-1.995,-1.9947,-1.9942,-1.9978,-1.9978,-1.9978,-1.9701,-1.971,-1.9747,-1.9778,-1.9817,-1.985,-1.9897,-1.9936,-1.9971,-1.9981,-1.9966,-1.9964,-1.9953,-1.9947,-1.9957,-1.9952,-1.9943,0,0]}]]